Wakefield, VA

9:41 AM EST on December 12, 2019 (GMT -0500)
Wakefield Municipal

Weather History for KAKQ - October, 2019

Change the Weather History Date:

Thursday, October 17, 2019

  Actual Average (KJGG) Record (KJGG)
Temperature  
Mean Temperature 54 °F -  
Max Temperature 64 °F 69 °F 84 °F (2011)
Min Temperature 45 °F 47 °F 30 °F (1978)
Degree Days  
Heating Degree Days 11    
Growing Degree Days 4 (Base 50)    
Moisture  
Dew Point 38 °F    
Average Humidity 59    
Maximum Humidity 76    
Minimum Humidity 35    
Precipitation  
Precipitation 0.00 in - - ()
Sea Level Pressure  
Sea Level Pressure 29.76 in    
Wind  
Wind Speed 7 mph (WSW)    
Max Wind Speed 13 mph    
Max Gust Speed 24 mph    
Visibility 10 miles    
Events      
Averages and records for this station are not official NWS values.
T = Trace of Precipitation, MM = Missing Value Source: NWS Daily Summary

Daily Weather History Graph

Daily Weather History Graph

Search for Another Location

Airport or City:

Astronomy

Oct. 17, 2019 Rise Set
Actual Time 7:17 AM EDT 6:28 PM EDT
Civil Twilight 6:51 AM EDT 6:55 PM EDT
Nautical Twilight 6:20 AM EDT 7:25 PM EDT
Astronomical Twilight 5:50 AM EDT 7:55 PM EDT
Moon 9:03 PM EDT (10/17) 10:42 AM EDT (10/17)
Length of Visible Light 12h 04m
Length of Day
11h 11m
Waning Gibbous, 87% of the Moon is Illuminated
Oct 17
Waning Gibbous
Oct 21
Last Quarter
Oct 27
New
Nov 4
First Quarter
Nov 12
Full

Hourly Weather History & Observations

Time (EDT) Temp. Windchill Dew Point Humidity Pressure Visibility Wind Dir Wind Speed Gust Speed Precip Events Conditions
12:54 AM 51.1 °F - 39.0 °F 63% 29.70 in 10.0 mi WSW 6.9 mph - N/A   Clear
1:54 AM 48.9 °F - 37.9 °F 66% 29.70 in 10.0 mi WSW 6.9 mph - N/A   Clear
2:54 AM 48.0 °F - 39.0 °F 71% 29.71 in 10.0 mi WSW 6.9 mph - N/A   Clear
3:54 AM 48.0 °F - 37.9 °F 68% 29.69 in 10.0 mi SW 8.1 mph - N/A   Clear
4:54 AM 46.9 °F - 37.9 °F 71% 29.70 in 10.0 mi WSW 6.9 mph - N/A   Clear
5:54 AM 46.0 °F 43.1 °F 37.9 °F 73% 29.71 in 10.0 mi SW 5.8 mph - N/A   Clear
6:54 AM 45.0 °F 41.2 °F 37.9 °F 76% 29.72 in 10.0 mi SSW 6.9 mph - N/A   Clear
7:54 AM 46.9 °F - 37.9 °F 71% 29.73 in 10.0 mi SW 6.9 mph - N/A   Clear
8:54 AM 50.0 °F - 39.0 °F 66% 29.75 in 10.0 mi WSW 9.2 mph - N/A   Clear
9:54 AM 53.1 °F - 39.9 °F 61% 29.77 in 10.0 mi WSW 8.1 mph - N/A   Clear
10:54 AM 57.9 °F - 37.9 °F 47% 29.78 in 10.0 mi West 12.7 mph 21.9 mph N/A   Clear
11:54 AM 61.0 °F - 39.0 °F 44% 29.79 in 10.0 mi West 10.4 mph 24.2 mph N/A   Clear
12:54 PM 63.0 °F - 37.9 °F 40% 29.78 in 10.0 mi West 9.2 mph 19.6 mph N/A   Clear
1:54 PM 61.0 °F - 37.9 °F 42% 29.76 in 10.0 mi West 10.4 mph 19.6 mph N/A   Clear
2:54 PM 61.0 °F - 39.0 °F 44% 29.75 in 10.0 mi WSW 9.2 mph - N/A   Clear
3:54 PM 61.0 °F - 39.0 °F 44% 29.76 in 10.0 mi West 8.1 mph 20.7 mph N/A   Clear
4:54 PM 63.0 °F - 35.1 °F 35% 29.76 in 10.0 mi West 11.5 mph 20.7 mph N/A   Clear
5:54 PM 61.0 °F - 35.1 °F 38% 29.76 in 10.0 mi West 5.8 mph - N/A   Clear
6:54 PM 54.0 °F - 41.0 °F 62% 29.78 in 10.0 mi Calm Calm - N/A   Clear
7:54 PM 51.1 °F - 39.9 °F 66% 29.80 in 10.0 mi Calm Calm - N/A   Clear
8:54 PM 52.0 °F - 37.9 °F 59% 29.82 in 10.0 mi WSW 3.5 mph - N/A   Clear
9:54 PM 48.0 °F - 39.9 °F 74% 29.86 in 10.0 mi WSW 3.5 mph - N/A   Clear
10:54 PM 46.0 °F - 39.0 °F 76% 29.87 in 10.0 mi Calm Calm - N/A   Clear
11:54 PM 48.0 °F - 37.9 °F 68% 29.88 in 10.0 mi Calm Calm - N/A   Clear